QLK2406 YHID-YBCS

Flight info

Callsign QLK2406
Flight time 1h 28m
Altitude 25000
Route HID R204 CS
Aircraft DH8D/M-SDE2E3FGRY/EB1

Departure

Time 2026-04-27 07:23
Airport Horn Island Airport (YHID)

Arrival

Time 2026-04-27 08:51
Airport Cairns International Airport (YBCS)
Time Latitude Longitude Altitude Speed Heading
2026-04-27 06:43 -10.59057 142.29451 63 ft 0 kts 195°
2026-04-27 07:19 -10.59061 142.29445 63 ft 4 kts 264°
2026-04-27 07:19 -10.59021 142.29446 61 ft 11 kts 41°
2026-04-27 07:19 -10.58958 142.29527 59 ft 15 kts 52°
2026-04-27 07:20 -10.58865 142.29533 56 ft 19 kts 321°
2026-04-27 07:20 -10.58743 142.29430 47 ft 25 kts 320°
2026-04-27 07:20 -10.58604 142.29312 40 ft 24 kts 322°
2026-04-27 07:20 -10.58573 142.29156 37 ft 25 kts 264°
2026-04-27 07:21 -10.58592 142.28958 34 ft 34 kts 264°
2026-04-27 07:21 -10.58616 142.28700 33 ft 39 kts 264°
2026-04-27 07:21 -10.58640 142.28433 33 ft 36 kts 265°
2026-04-27 07:21 -10.58656 142.28197 31 ft 24 kts 276°
2026-04-27 07:22 -10.58663 142.28126 31 ft 2 kts 134°
2026-04-27 07:22 -10.58665 142.28131 31 ft 0 kts 91°
2026-04-27 07:23 -10.58643 142.28391 33 ft 85 kts 85°
2026-04-27 07:23 -10.58566 142.29242 129 ft 140 kts 87°
2026-04-27 07:23 -10.58476 142.30260 696 ft 155 kts 85°
2026-04-27 07:23 -10.58322 142.31375 1330 ft 168 kts 85°
2026-04-27 07:24 -10.58159 142.32587 1959 ft 181 kts 85°
2026-04-27 07:24 -10.58248 142.33865 2521 ft 187 kts 114°
2026-04-27 07:24 -10.59148 142.34817 3120 ft 193 kts 153°
2026-04-27 07:24 -10.60472 142.35034 3722 ft 202 kts 179°
2026-04-27 07:25 -10.61908 142.34912 4264 ft 211 kts 181°
2026-04-27 07:25 -10.63380 142.34862 4922 ft 213 kts 180°
2026-04-27 07:25 -10.64863 142.34851 5562 ft 215 kts 178°
2026-04-27 07:25 -10.66359 142.34990 6192 ft 217 kts 172°
2026-04-27 07:26 -10.67854 142.35284 6779 ft 221 kts 168°
2026-04-27 07:26 -10.69369 142.35712 7321 ft 227 kts 164°
2026-04-27 07:26 -10.70857 142.36230 7858 ft 232 kts 161°
2026-04-27 07:26 -10.72385 142.36839 8405 ft 236 kts 160°
2026-04-27 07:27 -10.73899 142.37499 8939 ft 241 kts 159°
2026-04-27 07:27 -10.75439 142.38211 9461 ft 245 kts 158°
2026-04-27 07:27 -10.76989 142.38960 9981 ft 248 kts 157°
2026-04-27 07:27 -10.78546 142.39735 10536 ft 249 kts 156°
2026-04-27 07:28 -10.80112 142.40530 11060 ft 251 kts 155°
2026-04-27 07:28 -10.81678 142.41338 11560 ft 254 kts 155°
2026-04-27 07:28 -10.83256 142.42160 12046 ft 256 kts 155°
2026-04-27 07:28 -10.84827 142.42987 12538 ft 258 kts 155°
2026-04-27 07:29 -10.86429 142.43832 13028 ft 259 kts 154°
2026-04-27 07:29 -10.88026 142.44681 13494 ft 260 kts 154°
2026-04-27 07:29 -10.89650 142.45544 13922 ft 263 kts 154°
2026-04-27 07:29 -10.91273 142.46411 14377 ft 264 kts 154°
2026-04-27 07:30 -10.92915 142.47288 14793 ft 266 kts 154°
2026-04-27 07:30 -10.94557 142.48167 15210 ft 268 kts 154°
2026-04-27 07:30 -10.96221 142.49060 15619 ft 269 kts 155°
2026-04-27 07:30 -10.97891 142.49954 15969 ft 272 kts 154°
2026-04-27 07:31 -10.99562 142.50851 16383 ft 273 kts 155°
2026-04-27 07:31 -11.01249 142.51756 16797 ft 273 kts 155°
2026-04-27 07:31 -11.02936 142.52663 17131 ft 275 kts 155°
2026-04-27 07:31 -11.04648 142.53583 17517 ft 276 kts 155°
2026-04-27 07:32 -11.06354 142.54498 17898 ft 275 kts 155°
2026-04-27 07:32 -11.08035 142.55403 18361 ft 271 kts 155°
2026-04-27 07:32 -11.09685 142.56291 18819 ft 267 kts 155°
2026-04-27 07:32 -11.11310 142.57165 19208 ft 265 kts 156°
2026-04-27 07:33 -11.12945 142.58043 19563 ft 264 kts 156°
2026-04-27 07:33 -11.14559 142.58911 19914 ft 262 kts 156°
2026-04-27 07:33 -11.16168 142.59776 20264 ft 261 kts 156°
2026-04-27 07:33 -11.17780 142.60643 20586 ft 260 kts 156°
2026-04-27 07:34 -11.19392 142.61508 20878 ft 261 kts 156°
2026-04-27 07:34 -11.21000 142.62372 21124 ft 262 kts 156°
2026-04-27 07:34 -11.22624 142.63245 21361 ft 264 kts 157°
2026-04-27 07:34 -11.24260 142.64125 21629 ft 264 kts 156°
2026-04-27 07:35 -11.25894 142.65004 21919 ft 263 kts 157°
2026-04-27 07:35 -11.27494 142.65866 22198 ft 261 kts 156°
2026-04-27 07:35 -11.29105 142.66734 22475 ft 259 kts 157°
2026-04-27 07:35 -11.30697 142.67592 22748 ft 257 kts 157°
2026-04-27 07:36 -11.32272 142.68440 23015 ft 254 kts 157°
2026-04-27 07:36 -11.33847 142.69287 23250 ft 252 kts 158°
2026-04-27 07:36 -11.35389 142.70117 23478 ft 251 kts 157°
2026-04-27 07:36 -11.36926 142.70946 23697 ft 249 kts 158°
2026-04-27 07:37 -11.38468 142.71774 23859 ft 250 kts 158°
2026-04-27 07:37 -11.40020 142.72609 23998 ft 251 kts 158°
2026-04-27 07:37 -11.41575 142.73445 24137 ft 253 kts 158°
2026-04-27 07:37 -11.43138 142.74287 24298 ft 253 kts 158°
2026-04-27 07:38 -11.44709 142.75133 24434 ft 254 kts 158°
2026-04-27 07:38 -11.46289 142.75984 24560 ft 256 kts 158°
2026-04-27 07:38 -11.47879 142.76840 24681 ft 257 kts 158°
2026-04-27 07:38 -11.49475 142.77701 24804 ft 258 kts 158°
2026-04-27 07:39 -11.51086 142.78567 24859 ft 263 kts 158°
2026-04-27 07:39 -11.52722 142.79448 24882 ft 269 kts 158°
2026-04-27 07:39 -11.54400 142.80351 24889 ft 276 kts 158°
2026-04-27 07:39 -11.56124 142.81279 24891 ft 283 kts 158°
2026-04-27 07:40 -11.57893 142.82234 24891 ft 290 kts 158°
2026-04-27 07:40 -11.59713 142.83215 24891 ft 297 kts 157°
2026-04-27 07:40 -11.61548 142.84206 24894 ft 303 kts 157°
2026-04-27 07:40 -11.63444 142.85229 24893 ft 309 kts 157°
2026-04-27 07:41 -11.65378 142.86275 24892 ft 316 kts 157°
2026-04-27 07:41 -11.67325 142.87326 24889 ft 321 kts 157°
2026-04-27 07:41 -11.69330 142.88411 24889 ft 326 kts 156°
2026-04-27 07:41 -11.71365 142.89511 24888 ft 331 kts 157°
2026-04-27 07:42 -11.73405 142.90614 24888 ft 334 kts 156°
2026-04-27 07:42 -11.75479 142.91734 24886 ft 338 kts 156°
2026-04-27 07:42 -11.77562 142.92862 24886 ft 340 kts 156°
2026-04-27 07:42 -11.79668 142.94000 24886 ft 343 kts 157°
2026-04-27 07:43 -11.81776 142.95140 24886 ft 345 kts 156°
2026-04-27 07:43 -11.83936 142.96309 24887 ft 347 kts 157°
2026-04-27 07:43 -11.86050 142.97453 24887 ft 348 kts 157°
2026-04-27 07:43 -11.88208 142.98621 24885 ft 349 kts 156°
2026-04-27 07:44 -11.90362 142.99786 24885 ft 350 kts 157°
2026-04-27 07:44 -11.92539 143.00964 24885 ft 351 kts 156°
2026-04-27 07:44 -11.94700 143.02133 24887 ft 352 kts 156°
2026-04-27 07:44 -11.96875 143.03311 24887 ft 352 kts 156°
2026-04-27 07:45 -11.99034 143.04480 24885 ft 353 kts 156°
2026-04-27 07:45 -12.01213 143.05659 24882 ft 353 kts 156°
2026-04-27 07:45 -12.03398 143.06842 24883 ft 354 kts 156°
2026-04-27 07:45 -12.05560 143.08014 24888 ft 354 kts 156°
2026-04-27 07:46 -12.07747 143.09198 24889 ft 354 kts 156°
2026-04-27 07:46 -12.09939 143.10385 24886 ft 355 kts 156°
2026-04-27 07:46 -12.12131 143.11574 24888 ft 355 kts 156°
2026-04-27 07:46 -12.14320 143.12759 24886 ft 355 kts 157°
2026-04-27 07:47 -12.16508 143.13945 24889 ft 355 kts 157°
2026-04-27 07:47 -12.18703 143.15135 24888 ft 355 kts 157°
2026-04-27 07:47 -12.20899 143.16325 24890 ft 356 kts 156°
2026-04-27 07:47 -12.23099 143.17519 24886 ft 356 kts 157°
2026-04-27 07:48 -12.25289 143.18707 24886 ft 356 kts 157°
2026-04-27 07:48 -12.27474 143.19893 24886 ft 356 kts 157°
2026-04-27 07:48 -12.29658 143.21078 24888 ft 356 kts 157°
2026-04-27 07:48 -12.31852 143.22269 24889 ft 356 kts 157°
2026-04-27 07:49 -12.34049 143.23462 24885 ft 356 kts 157°
2026-04-27 07:49 -12.36231 143.24646 24889 ft 356 kts 156°
2026-04-27 07:49 -12.38418 143.25833 24890 ft 356 kts 157°
2026-04-27 07:49 -12.40618 143.27028 24891 ft 356 kts 157°
2026-04-27 07:50 -12.42798 143.28212 24890 ft 356 kts 157°
2026-04-27 07:50 -12.44994 143.29405 24887 ft 356 kts 157°
2026-04-27 07:50 -12.47181 143.30594 24887 ft 356 kts 157°
2026-04-27 07:50 -12.49376 143.31787 24891 ft 356 kts 157°
2026-04-27 07:51 -12.51573 143.32982 24896 ft 356 kts 157°
2026-04-27 07:51 -12.53762 143.34172 24896 ft 356 kts 157°
2026-04-27 07:51 -12.55960 143.35367 24899 ft 356 kts 157°
2026-04-27 07:51 -12.58165 143.36566 24902 ft 356 kts 157°
2026-04-27 07:52 -12.60340 143.37750 24903 ft 356 kts 157°
2026-04-27 07:52 -12.62557 143.38956 24901 ft 356 kts 157°
2026-04-27 07:52 -12.64752 143.40152 24902 ft 357 kts 157°
2026-04-27 07:52 -12.66929 143.41336 24902 ft 357 kts 157°
2026-04-27 07:53 -12.69147 143.42545 24897 ft 357 kts 157°
2026-04-27 07:53 -12.71337 143.43736 24897 ft 357 kts 157°
2026-04-27 07:53 -12.73532 143.44933 24895 ft 357 kts 157°
2026-04-27 07:53 -12.75722 143.46129 24901 ft 357 kts 157°
2026-04-27 07:54 -12.77937 143.47337 24900 ft 357 kts 157°
2026-04-27 07:54 -12.80117 143.48528 24903 ft 357 kts 157°
2026-04-27 07:54 -12.82302 143.49722 24898 ft 357 kts 157°
2026-04-27 07:54 -12.84524 143.50935 24897 ft 357 kts 157°
2026-04-27 07:55 -12.86710 143.52130 24900 ft 358 kts 158°
2026-04-27 07:55 -12.88910 143.53331 24901 ft 358 kts 157°
2026-04-27 07:55 -12.91118 143.54538 24902 ft 358 kts 157°
2026-04-27 07:55 -12.93319 143.55742 24902 ft 358 kts 158°
2026-04-27 07:56 -12.95526 143.56949 24903 ft 357 kts 158°
2026-04-27 07:56 -12.97732 143.58154 24906 ft 358 kts 158°
2026-04-27 07:56 -12.99930 143.59357 24902 ft 358 kts 158°
2026-04-27 07:56 -13.02111 143.60550 24905 ft 358 kts 158°
2026-04-27 07:57 -13.04312 143.61755 24906 ft 358 kts 157°
2026-04-27 07:57 -13.06540 143.62975 24907 ft 358 kts 158°
2026-04-27 07:57 -13.08719 143.64166 24906 ft 358 kts 158°
2026-04-27 07:57 -13.10938 143.65382 24902 ft 358 kts 158°
2026-04-27 07:58 -13.13159 143.66599 24904 ft 358 kts 157°
2026-04-27 07:58 -13.15350 143.67799 24903 ft 357 kts 158°
2026-04-27 07:58 -13.17541 143.68999 24902 ft 357 kts 158°
2026-04-27 07:58 -13.19743 143.70206 24907 ft 358 kts 158°
2026-04-27 07:59 -13.21945 143.71413 24908 ft 358 kts 157°
2026-04-27 07:59 -13.26348 143.73827 24903 ft 358 kts 158°
2026-04-27 07:59 -13.28538 143.75027 24908 ft 358 kts 158°
2026-04-27 08:00 -13.30749 143.76241 24903 ft 358 kts 158°
2026-04-27 08:00 -13.32957 143.77452 24898 ft 358 kts 158°
2026-04-27 08:00 -13.35162 143.78662 24894 ft 358 kts 158°
2026-04-27 08:00 -13.37352 143.79864 24894 ft 358 kts 158°
2026-04-27 08:01 -13.39569 143.81081 24894 ft 359 kts 158°
2026-04-27 08:01 -13.41778 143.82294 24889 ft 359 kts 158°
2026-04-27 08:01 -13.43990 143.83510 24889 ft 359 kts 158°
2026-04-27 08:01 -13.46190 143.84717 24889 ft 359 kts 158°
2026-04-27 08:02 -13.48402 143.85933 24887 ft 360 kts 158°
2026-04-27 08:02 -13.50636 143.87161 24889 ft 360 kts 158°
2026-04-27 08:02 -13.52838 143.88371 24887 ft 360 kts 158°
2026-04-27 08:02 -13.55061 143.89594 24884 ft 360 kts 158°
2026-04-27 08:03 -13.57271 143.90808 24886 ft 360 kts 158°
2026-04-27 08:03 -13.59477 143.92021 24887 ft 360 kts 158°
2026-04-27 08:03 -13.61701 143.93247 24882 ft 361 kts 158°
2026-04-27 08:03 -13.63915 143.94464 24887 ft 360 kts 158°
2026-04-27 08:04 -13.66146 143.95692 24887 ft 361 kts 158°
2026-04-27 08:04 -13.68343 143.96901 24883 ft 361 kts 158°
2026-04-27 08:04 -13.70558 143.98122 24884 ft 361 kts 158°
2026-04-27 08:04 -13.72802 143.99358 24885 ft 361 kts 158°
2026-04-27 08:05 -13.75011 144.00574 24885 ft 361 kts 158°
2026-04-27 08:05 -13.77231 144.01798 24890 ft 361 kts 158°
2026-04-27 08:05 -13.79471 144.03032 24889 ft 361 kts 158°
2026-04-27 08:05 -13.81676 144.04246 24887 ft 361 kts 158°
2026-04-27 08:06 -13.83899 144.05473 24890 ft 361 kts 158°
2026-04-27 08:06 -13.86129 144.06703 24892 ft 362 kts 158°
2026-04-27 08:06 -13.88359 144.07933 24890 ft 362 kts 158°
2026-04-27 08:06 -13.90566 144.09151 24887 ft 362 kts 158°
2026-04-27 08:07 -13.92799 144.10384 24893 ft 362 kts 158°
2026-04-27 08:07 -13.95034 144.11616 24894 ft 362 kts 158°
2026-04-27 08:07 -13.97261 144.12846 24901 ft 363 kts 158°
2026-04-27 08:07 -13.99480 144.14072 24908 ft 363 kts 158°
2026-04-27 08:08 -14.01730 144.15314 24906 ft 363 kts 158°
2026-04-27 08:08 -14.03944 144.16538 24906 ft 363 kts 158°
2026-04-27 08:08 -14.06182 144.17773 24906 ft 364 kts 158°
2026-04-27 08:08 -14.08419 144.19009 24906 ft 364 kts 158°
2026-04-27 08:09 -14.10648 144.20242 24906 ft 364 kts 158°
2026-04-27 08:09 -14.12926 144.21501 24903 ft 364 kts 158°
2026-04-27 08:09 -14.15142 144.22728 24902 ft 364 kts 158°
2026-04-27 08:09 -14.17386 144.23969 24900 ft 364 kts 158°
2026-04-27 08:10 -14.19607 144.25198 24907 ft 364 kts 158°
2026-04-27 08:10 -14.21859 144.26445 24905 ft 364 kts 158°
2026-04-27 08:10 -14.24106 144.27689 24907 ft 364 kts 158°
2026-04-27 08:10 -14.26329 144.28919 24910 ft 364 kts 158°
2026-04-27 08:11 -14.28575 144.30164 24911 ft 365 kts 158°
2026-04-27 08:11 -14.30830 144.31413 24910 ft 365 kts 158°
2026-04-27 08:11 -14.33048 144.32642 24914 ft 365 kts 158°
2026-04-27 08:11 -14.35296 144.33887 24917 ft 365 kts 158°
2026-04-27 08:12 -14.37548 144.35135 24917 ft 365 kts 158°
2026-04-27 08:12 -14.39801 144.36385 24918 ft 365 kts 158°
2026-04-27 08:12 -14.42037 144.37625 24919 ft 365 kts 158°
2026-04-27 08:12 -14.44295 144.38878 24916 ft 366 kts 158°
2026-04-27 08:13 -14.46550 144.40129 24918 ft 366 kts 158°
2026-04-27 08:13 -14.48771 144.41360 24919 ft 366 kts 158°
2026-04-27 08:13 -14.51024 144.42612 24924 ft 366 kts 158°
2026-04-27 08:13 -14.53289 144.43869 24922 ft 366 kts 158°
2026-04-27 08:14 -14.55520 144.45108 24920 ft 366 kts 158°
2026-04-27 08:14 -14.57787 144.46368 24917 ft 367 kts 158°
2026-04-27 08:14 -14.60041 144.47620 24919 ft 366 kts 158°
2026-04-27 08:14 -14.62274 144.48862 24917 ft 367 kts 158°
2026-04-27 08:15 -14.64534 144.50117 24916 ft 367 kts 158°
2026-04-27 08:15 -14.66809 144.51384 24918 ft 367 kts 158°
2026-04-27 08:15 -14.69066 144.52640 24920 ft 367 kts 158°
2026-04-27 08:15 -14.71324 144.53899 24924 ft 368 kts 158°
2026-04-27 08:16 -14.73570 144.55151 24926 ft 367 kts 158°
2026-04-27 08:16 -14.75820 144.56406 24924 ft 368 kts 158°
2026-04-27 08:16 -14.78070 144.57660 24927 ft 368 kts 158°
2026-04-27 08:16 -14.80334 144.58923 24931 ft 368 kts 158°
2026-04-27 08:17 -14.82621 144.60197 24936 ft 368 kts 158°
2026-04-27 08:17 -14.84858 144.61447 24939 ft 368 kts 158°
2026-04-27 08:17 -14.87120 144.62709 24937 ft 368 kts 158°
2026-04-27 08:17 -14.89376 144.63969 24941 ft 369 kts 158°
2026-04-27 08:18 -14.91644 144.65236 24951 ft 369 kts 158°
2026-04-27 08:18 -14.93906 144.66498 24952 ft 368 kts 158°
2026-04-27 08:18 -14.96164 144.67761 24946 ft 368 kts 158°
2026-04-27 08:18 -14.98438 144.69031 24944 ft 368 kts 158°
2026-04-27 08:19 -15.00698 144.70294 24944 ft 368 kts 158°
2026-04-27 08:19 -15.02935 144.71544 24953 ft 368 kts 158°
2026-04-27 08:19 -15.05208 144.72816 24956 ft 368 kts 158°
2026-04-27 08:19 -15.07472 144.74083 24951 ft 368 kts 158°
2026-04-27 08:20 -15.09718 144.75339 24940 ft 368 kts 158°
2026-04-27 08:20 -15.11975 144.76602 24942 ft 368 kts 158°
2026-04-27 08:20 -15.14254 144.77878 24947 ft 368 kts 158°
2026-04-27 08:20 -15.16505 144.79138 24953 ft 368 kts 158°
2026-04-27 08:21 -15.18776 144.80409 24960 ft 368 kts 158°
2026-04-27 08:21 -15.21009 144.81661 24955 ft 368 kts 158°
2026-04-27 08:21 -15.23276 144.82930 24951 ft 368 kts 158°
2026-04-27 08:21 -15.25542 144.84201 24947 ft 368 kts 158°
2026-04-27 08:22 -15.27802 144.85467 24948 ft 368 kts 158°
2026-04-27 08:22 -15.30063 144.86736 24964 ft 368 kts 158°
2026-04-27 08:22 -15.32323 144.88002 24963 ft 368 kts 158°
2026-04-27 08:22 -15.34580 144.89270 24955 ft 368 kts 158°
2026-04-27 08:23 -15.36819 144.90526 24959 ft 368 kts 158°
2026-04-27 08:23 -15.39082 144.91795 24957 ft 368 kts 157°
2026-04-27 08:23 -15.41352 144.93069 24962 ft 369 kts 157°
2026-04-27 08:23 -15.43619 144.94344 24970 ft 369 kts 157°
2026-04-27 08:24 -15.45887 144.95616 24961 ft 369 kts 158°
2026-04-27 08:24 -15.48150 144.96887 24963 ft 369 kts 157°
2026-04-27 08:24 -15.50402 144.98154 24959 ft 370 kts 157°
2026-04-27 08:24 -15.52672 144.99429 24959 ft 370 kts 158°
2026-04-27 08:25 -15.54946 145.00708 24963 ft 370 kts 158°
2026-04-27 08:25 -15.57197 145.01975 24965 ft 370 kts 157°
2026-04-27 08:25 -15.59478 145.03256 24964 ft 370 kts 157°
2026-04-27 08:25 -15.61755 145.04538 24954 ft 370 kts 158°
2026-04-27 08:26 -15.64018 145.05811 24962 ft 370 kts 158°
2026-04-27 08:26 -15.66291 145.07092 24963 ft 370 kts 158°
2026-04-27 08:26 -15.68548 145.08363 24965 ft 370 kts 157°
2026-04-27 08:26 -15.70813 145.09639 24975 ft 370 kts 157°
2026-04-27 08:27 -15.73079 145.10915 24938 ft 371 kts 157°
2026-04-27 08:27 -15.75375 145.12207 24529 ft 373 kts 156°
2026-04-27 08:27 -15.77623 145.13484 24058 ft 362 kts 156°
2026-04-27 08:27 -15.79803 145.14725 23585 ft 351 kts 156°
2026-04-27 08:28 -15.81895 145.15912 23129 ft 342 kts 155°
2026-04-27 08:28 -15.83983 145.17094 22669 ft 333 kts 155°
2026-04-27 08:28 -15.85970 145.18219 22237 ft 325 kts 155°
2026-04-27 08:28 -15.87940 145.19334 21808 ft 317 kts 155°
2026-04-27 08:29 -15.89861 145.20419 21377 ft 309 kts 155°
2026-04-27 08:29 -15.91726 145.21475 20965 ft 302 kts 155°
2026-04-27 08:29 -15.93547 145.22505 20559 ft 295 kts 155°
2026-04-27 08:29 -15.95331 145.23515 20163 ft 287 kts 155°
2026-04-27 08:30 -15.97065 145.24495 19773 ft 280 kts 155°
2026-04-27 08:30 -15.98758 145.25453 19396 ft 272 kts 155°
2026-04-27 08:30 -16.00394 145.26379 19026 ft 263 kts 155°
2026-04-27 08:30 -16.01967 145.27271 18672 ft 254 kts 155°
2026-04-27 08:31 -16.03504 145.28142 18331 ft 245 kts 156°
2026-04-27 08:31 -16.04953 145.28963 18008 ft 235 kts 156°
2026-04-27 08:31 -16.06391 145.29770 17699 ft 234 kts 156°
2026-04-27 08:31 -16.07825 145.30577 17380 ft 231 kts 156°
2026-04-27 08:32 -16.09224 145.31369 17068 ft 225 kts 156°
2026-04-27 08:32 -16.10583 145.32138 16766 ft 221 kts 156°
2026-04-27 08:32 -16.11944 145.32906 16467 ft 221 kts 155°
2026-04-27 08:32 -16.13272 145.33714 16167 ft 223 kts 153°
2026-04-27 08:33 -16.14609 145.34566 15857 ft 222 kts 153°
2026-04-27 08:33 -16.15912 145.35399 15559 ft 220 kts 152°
2026-04-27 08:33 -16.17223 145.36234 15258 ft 217 kts 152°
2026-04-27 08:33 -16.18501 145.37047 14975 ft 215 kts 152°
2026-04-27 08:34 -16.19764 145.37848 14689 ft 212 kts 152°
2026-04-27 08:34 -16.21016 145.38641 14403 ft 209 kts 152°
2026-04-27 08:34 -16.22258 145.39427 14121 ft 206 kts 152°
2026-04-27 08:34 -16.23478 145.40199 13846 ft 204 kts 152°
2026-04-27 08:35 -16.24701 145.40971 13571 ft 203 kts 151°
2026-04-27 08:35 -16.25898 145.41727 13300 ft 202 kts 151°
2026-04-27 08:35 -16.27115 145.42493 13029 ft 202 kts 151°
2026-04-27 08:35 -16.28305 145.43243 12764 ft 202 kts 151°
2026-04-27 08:36 -16.29521 145.44011 12489 ft 202 kts 150°
2026-04-27 08:36 -16.30720 145.44769 12213 ft 200 kts 150°
2026-04-27 08:36 -16.31905 145.45522 11952 ft 197 kts 151°
2026-04-27 08:36 -16.33078 145.46265 11691 ft 195 kts 150°
2026-04-27 08:37 -16.34220 145.46988 11431 ft 192 kts 150°
2026-04-27 08:37 -16.35363 145.47711 11169 ft 189 kts 150°
2026-04-27 08:37 -16.36357 145.48569 10901 ft 186 kts 124°
2026-04-27 08:37 -16.36940 145.49765 10664 ft 184 kts 116°
2026-04-27 08:38 -16.37482 145.50974 10412 ft 186 kts 116°
2026-04-27 08:38 -16.38029 145.52188 10138 ft 185 kts 116°
2026-04-27 08:38 -16.38578 145.53406 9853 ft 185 kts 116°
2026-04-27 08:38 -16.39125 145.54607 9572 ft 184 kts 116°
2026-04-27 08:39 -16.39676 145.55804 9289 ft 183 kts 116°
2026-04-27 08:39 -16.40229 145.57010 9003 ft 182 kts 116°
2026-04-27 08:39 -16.40832 145.58145 8709 ft 180 kts 132°
2026-04-27 08:39 -16.41900 145.58820 8424 ft 181 kts 162°
2026-04-27 08:40 -16.43125 145.59152 8188 ft 183 kts 166°
2026-04-27 08:40 -16.44380 145.59441 7958 ft 186 kts 166°
2026-04-27 08:40 -16.45646 145.59709 7725 ft 186 kts 167°
2026-04-27 08:40 -16.46925 145.59967 7480 ft 184 kts 167°
2026-04-27 08:41 -16.48171 145.60207 7235 ft 181 kts 168°
2026-04-27 08:41 -16.49425 145.60440 6992 ft 181 kts 168°
2026-04-27 08:41 -16.50664 145.60666 6751 ft 180 kts 169°
2026-04-27 08:41 -16.51899 145.60886 6504 ft 177 kts 169°
2026-04-27 08:42 -16.53117 145.61099 6257 ft 174 kts 168°
2026-04-27 08:42 -16.54303 145.61305 6011 ft 172 kts 168°
2026-04-27 08:42 -16.55471 145.61505 5765 ft 169 kts 168°
2026-04-27 08:42 -16.56637 145.61696 5520 ft 167 kts 168°
2026-04-27 08:43 -16.57787 145.61879 5276 ft 165 kts 168°
2026-04-27 08:43 -16.58901 145.62050 5121 ft 157 kts 168°
2026-04-27 08:43 -16.59922 145.62283 5039 ft 142 kts 155°
2026-04-27 08:43 -16.60818 145.62715 5052 ft 143 kts 153°
2026-04-27 08:44 -16.61739 145.63138 5037 ft 145 kts 155°
2026-04-27 08:44 -16.62687 145.63553 5018 ft 149 kts 155°
2026-04-27 08:44 -16.63659 145.63992 4880 ft 148 kts 154°
2026-04-27 08:44 -16.64583 145.64420 4588 ft 141 kts 154°
2026-04-27 08:45 -16.65470 145.64822 4328 ft 138 kts 154°
2026-04-27 08:45 -16.66367 145.65224 4167 ft 140 kts 153°
2026-04-27 08:45 -16.67268 145.65630 4011 ft 141 kts 154°
2026-04-27 08:45 -16.68173 145.66037 3847 ft 144 kts 153°
2026-04-27 08:46 -16.69103 145.66457 3674 ft 147 kts 153°
2026-04-27 08:46 -16.70067 145.66891 3469 ft 148 kts 153°
2026-04-27 08:46 -16.71013 145.67317 3262 ft 148 kts 154°
2026-04-27 08:46 -16.71957 145.67746 3046 ft 145 kts 153°
2026-04-27 08:47 -16.72863 145.68158 2826 ft 140 kts 153°
2026-04-27 08:47 -16.73740 145.68553 2620 ft 134 kts 153°
2026-04-27 08:47 -16.74591 145.68933 2503 ft 131 kts 154°
2026-04-27 08:47 -16.75437 145.69312 2344 ft 131 kts 154°
2026-04-27 08:48 -16.76282 145.69690 2180 ft 133 kts 154°
2026-04-27 08:48 -16.77130 145.70071 1991 ft 131 kts 153°
2026-04-27 08:48 -16.77965 145.70451 1800 ft 128 kts 153°
2026-04-27 08:48 -16.78766 145.70813 1619 ft 123 kts 153°
2026-04-27 08:49 -16.79547 145.71164 1455 ft 119 kts 154°
2026-04-27 08:49 -16.80303 145.71501 1316 ft 118 kts 154°
2026-04-27 08:49 -16.81081 145.71849 1187 ft 122 kts 154°
2026-04-27 08:49 -16.81875 145.72211 1042 ft 127 kts 154°
2026-04-27 08:50 -16.82687 145.72583 871 ft 127 kts 154°
2026-04-27 08:50 -16.83496 145.72951 699 ft 126 kts 154°
2026-04-27 08:50 -16.84301 145.73317 538 ft 125 kts 156°
2026-04-27 08:50 -16.85116 145.73685 374 ft 127 kts 155°
2026-04-27 08:51 -16.85931 145.74057 208 ft 127 kts 156°
2026-04-27 08:51 -16.86737 145.74425 38 ft 124 kts 156°
2026-04-27 08:51 -16.87395 145.74725 20 ft 69 kts 157°
2026-04-27 08:51 -16.87694 145.74863 20 ft 23 kts 141°
2026-04-27 08:52 -16.87710 145.74953 20 ft 7 kts 71°
2026-04-27 08:52 -16.87695 145.74986 19 ft 0 kts 63°
2026-04-27 08:56 -16.87693 145.74991 19 ft 1 kts 63°
2026-04-27 08:56 -16.87666 145.75055 19 ft 13 kts 68°
2026-04-27 08:56 -16.87649 145.75145 19 ft 11 kts 75°
2026-04-27 08:56 -16.87629 145.75197 21 ft 6 kts 66°
2026-04-27 08:57 -16.87618 145.75223 22 ft 0 kts 66°